Location: Balch Camp Heliport
(36.9061°N, 119.1296°W)
Time: 05:13:53
(UTC+00:00)

Daily predictions for brighter satellites

Satellite Brightness Start Highest point End
(mag) Time Altitude Azimuth Time Altitude Azimuth Time Altitude Azimuth
STARLINK-1113 4.0 02:44:54 10° NW 02:49:00 65° SW 02:53:05 10° SE
Cosmos 2228 4.1 02:45:50 10° SE 02:49:16 24° E 02:52:45 10° NE
CZ-2C R/B 4.3 02:49:14 10° ENE 02:50:54 11° E 02:52:34 10° ESE
ARGOS 4.1 02:47:34 10° SE 02:52:04 28° ENE 02:56:33 10° N
STARLINK-1119 4.2 02:49:51 10° NW 02:53:55 58° SW 02:57:59 10° SSE
ISS -3.5 02:51:16 10° NW 02:54:36 71° SW 02:57:56 10° SE
ATLAS 2AS CENTAUR R/B 3.9 02:48:38 10° NNW 02:55:03 29° NE 03:01:01 10° ESE
USA 234 4.4 02:52:14 10° ENE 02:56:45 20° ESE 03:01:14 10° SSE
Cosmos 1758 Rocket 4.3 02:53:58 10° NNE 02:57:53 32° ENE 03:01:44 10° SE
STARLINK-1114 4.4 02:54:52 10° WNW 02:58:53 52° SW 03:02:54 10° SSE
ARGOS Delta rocket 4.3 02:53:50 10° SSE 02:58:56 55° ENE 03:04:16 10° N
Cosmos 2184 Rocket 4.4 02:55:43 10° N 03:01:36 41° ENE 03:07:23 10° SSE
Cosmos 1606 Rocket 4.1 02:57:35 10° SSE 03:01:38 36° E 03:05:43 10° NNE
FALCON 9 DEB 3.4 02:58:24 10° SSW 03:01:47 50° SE 03:05:11 10° ENE
Cosmos 407 Rocket 4.0 02:57:40 10° SSE 03:02:19 35° E 03:06:56 10° NE
SL-24 R/B - RUBIN 2 4.3 02:59:58 10° S 03:05:05 51° ESE 03:10:54 10° NE
Aureole 3 4.1 03:01:24 10° S 03:05:55 81° W 03:11:46 10° N
GEOS 3 Rocket 3.9 03:01:05 10° SE 03:06:03 54° NE 03:11:07 10° NNW
Cosmos 1992 Rocket 4.0 03:03:08 10° NNW 03:08:22 82° ENE 03:13:34 10° SSE
IRIDIUM 106 4.4 03:08:53 10° N 03:14:03 60° E 03:19:11 10° SSE
Cosmos 1437 2.8 03:11:53 10° N 03:14:49 45° E 03:17:42 10° SSE
SL-4 R/B 3.8 03:12:00 10° W 03:14:49 23° NNW 03:17:38 10° NNE
Hubble Space Telescope 2.5 03:12:26 10° SSW 03:15:11 17° SSE 03:17:07 13° SE
Nadezhda 1 Rocket 4.3 03:09:56 10° SSE 03:15:58 46° E 03:21:59 10° NNE
STARLINK-52 2.8 03:12:52 10° SW 03:16:03 71° SE 03:19:14 10° NE
SL-8 R/B 3.7 03:12:03 10° NW 03:16:50 78° NE 03:20:40 16° ESE
Cosmos 1340 Rocket 3.8 03:14:55 10° SSE 03:18:21 27° E 03:21:47 10° NE
SEDSat Delta rocket 4.3 03:14:25 10° W 03:19:18 36° SSW 03:22:47 15° SE
Aureole 1 Rocket 4.3 03:14:56 10° S 03:22:46 67° ESE 03:29:06 10° NNE
ATLAS 5 CENTAUR R/B 1.3 03:20:16 10° SSW 03:24:14 65° ESE 03:28:35 10° NE
Cosmos 2154 Rocket 4.5 03:18:23 10° N 03:24:18 40° ENE 03:29:54 11° SE
Cosmos 1703 3.8 03:21:17 10° N 03:24:59 38° E 03:27:46 16° SE
Cosmos 1328 4.3 03:22:54 10° N 03:26:40 39° E 03:29:20 17° SE
HJ-1C 4.5 03:24:36 10° S 03:27:50 46° W 03:31:06 10° NNW
Cosmos 1908 3.2 03:25:51 10° S 03:29:38 60° E 03:33:28 10° NNE
Aureole 2 Rocket 4.4 03:27:06 10° NW 03:30:05 28° WSW 03:32:58 10° SSW
Meteor 1-16 Rocket 4.2 03:25:00 10° S 03:30:22 85° W 03:35:55 10° N
FREGAT/IRIS 2.2 03:33:26 19° SSE 03:35:12 83° E 03:37:56 10° N
CZ-4 R/B 4.4 03:33:19 10° WSW 03:35:13 13° W 03:37:05 10° WNW
CZ-2C R/B 3.8 03:34:55 10° NNE 03:39:32 57° E 03:44:01 10° S
Cosmos 1726 3.7 03:38:08 10° SSW 03:41:38 38° W 03:45:09 10° N
Cosmos 1943 Rocket 3.6 03:36:54 10° NW 03:41:56 36° WSW 03:47:00 10° S
MOS 1 Rocket 4.0 03:37:17 10° NNE 03:42:25 41° E 03:47:31 10° SSE
SL-08 RB Rocket 3.7 03:41:43 19° SSE 03:44:53 61° ENE 03:49:25 10° N
Resurs 1-3 4.3 03:44:13 29° ESE 03:45:28 35° ENE 03:49:27 10° N
Cosmos 2074 Rocket 4.1 03:39:16 10° N 03:45:34 83° W 03:51:52 10° S
H-2A R/B 2.2 03:41:10 10° S 03:46:24 76° WSW 03:51:31 10° NNW
USA 186 2.1 03:43:32 12° S 03:46:33 67° W 03:49:47 10° NNW
CZ-2C R/B 3.0 03:46:28 10° S 03:51:24 74° W 03:56:10 10° NNW
Cosmos 2369 Rocket 3.4 03:47:42 10° NW 03:52:58 40° WSW 03:58:10 10° S
MOS 1 4.4 03:47:21 10° S 03:52:59 80° WSW 03:58:41 10° NNW
Cosmos 2058 Rocket 3.0 03:57:45 10° S 04:02:16 89° W 04:06:48 10° N
Cosmos 1610 Rocket 4.4 03:56:05 10° N 04:02:17 86° E 04:07:36 14° S
Ariane Rocket 4.2 04:00:33 10° S 04:05:18 41° W 04:10:05 10° NNW
Cosmos 1140 Rocket 3.7 04:03:49 10° SSW 04:08:59 72° WNW 04:14:10 10° NNE
NOSS 3-4 (A) 3.9 04:07:08 10° NNW 04:14:21 77° ENE 04:17:57 35° SE
NOSS 3-4 (C) 3.9 04:07:15 10° NNW 04:14:27 77° ENE 04:18:01 36° SE
Resurs 01 Rocket 1.7 04:16:17 53° ENE 04:16:17 53° ENE 04:20:32 10° N
Cosmos 1295 Rocket 4.4 04:10:33 10° N 04:16:54 82° E 04:20:26 28° S
Cosmos 1656 Rocket 4.5 04:19:12 10° NW 04:24:34 47° WSW 04:27:54 21° S
MetOp-A 4.2 04:22:24 33° S 04:24:54 76° WSW 04:30:16 10° NNW
Cosmos 921 Rocket 3.0 04:22:06 10° NNW 04:25:52 66° NNE 04:25:52 66° NNE
DMSP B5D2-2 4.4 04:22:43 10° N 04:27:54 65° WNW 04:33:04 10° SSW
CZ-2C R/B 2.7 04:26:29 10° N 04:31:39 71° WNW 04:36:47 10° SSW
Cosmos 1461 3.1 04:29:37 10° NNW 04:34:03 81° N 04:34:03 81° N
APEX 4.5 04:32:25 10° NNW 04:38:23 58° WSW 04:39:39 46° SSW
USA 234 3.1 04:33:38 10° NE 04:40:13 88° SE 04:46:46 10° SW
COSMOS 2455 2.7 04:34:29 10° NNW 04:40:32 70° ENE 04:41:01 67° E
Cosmos 2341 Rocket 4.0 04:36:20 10° N 04:42:44 86° W 04:44:38 49° S
Cosmos 1300 4.0 04:46:38 40° NW 04:46:38 40° NW 04:49:39 10° N
ATLAS 2AS CENTAUR R/B 3.0 04:39:16 10° NW 04:46:32 62° WSW 04:48:42 43° S
Terra 4.2 04:56:50 12° NNE 04:56:50 12° NNE 04:57:26 10° NNE
Hubble Space Telescope 3.6 04:52:24 10° SW 04:52:27 10° SW 04:52:27 10° SW
Cosmos 2218 Rocket 3.9 04:50:17 10° N 04:56:22 74° ENE 04:56:22 74° ENE
BREEZE M DEB (TANK) 4.1 04:53:25 10° W 04:56:40 42° NNW 05:05:23 10° NE
Cosmos 2181 Rocket 4.4 05:04:15 37° SW 05:06:40 60° W 05:12:48 10° N
SL-8 Rocket 4.1 05:05:51 10° NNW 05:12:07 69° W 05:12:32 67° WSW
Cosmos 2366 rocket 4.2 05:19:06 10° NNW 05:24:37 64° WNW 05:24:37 64° WNW
CZ-4C R/B 3.9 06:22:57 10° NNW 06:27:53 39° N 06:27:53 39° N
SL-16 R/B 4.2 09:16:57 28° NNE 09:16:57 28° NNE 09:19:53 10° N
Cosmos 2227 Rocket 4.4 09:31:39 19° ENE 09:31:39 19° ENE 09:33:38 10° NE
ADEOS II 4.4 09:31:06 10° NE 09:32:55 19° NE 09:32:55 19° NE
Resurs 1-4 Rocket 4.3 09:42:46 10° N 09:44:24 21° N 09:44:24 21° N
CENTAUR R/B 4.1 09:54:54 26° E 09:54:54 26° E 09:58:46 10° NE
CZ-2D R/B 4.0 10:10:15 10° N 10:12:26 23° NNW 10:12:26 23° NNW
NOSS 3-2 (C) 4.1 10:23:06 48° ENE 10:23:06 48° ENE 10:27:52 10° NE
Cosmos 2237 Rocket 3.7 10:24:57 10° NNW 10:27:36 28° NNW 10:27:36 28° NNW
Cosmos 1634 Rocket 4.2 10:28:08 10° N 10:33:29 65° NNE 10:33:29 65° NNE
Cosmos 2297 Rocket 3.0 10:47:28 41° NNW 10:47:28 41° NNW 10:51:31 10° NNE
ATLAS 3B R/B 3.3 10:49:43 41° SE 10:51:05 46° ESE 10:57:21 10° NE
Cosmos 1048 Rocket 4.4 10:47:27 10° N 10:52:46 62° ENE 10:53:16 59° E
Cosmos 2142 Rocket 4.5 10:47:37 10° N 10:53:59 81° E 10:54:51 67° SSE
USA 267 3.1 10:48:33 10° NE 10:55:06 80° NW 10:55:39 74° W
Cosmos 2219 4.5 10:57:26 30° NW 10:57:26 30° NW 11:01:17 10° N
Meteor 2-4 Rocket 4.5 10:56:04 38° SE 10:57:54 51° E 11:03:35 10° NNE
Cosmos 1125 Rocket 3.8 10:59:11 63° N 10:59:11 63° N 11:03:40 10° NNE
Meteor 1-18 Rocket 4.3 11:07:14 63° NW 11:07:14 63° NW 11:12:28 10° N
Cosmos 2227 Rocket 3.1 11:13:28 34° NW 11:13:28 34° NW 11:17:56 10° N
STARLINK-1045 4.4 11:15:05 48° NNE 11:15:05 48° NNE 11:18:13 10° NE
H-2A R/B 3.9 11:17:12 20° NNW 11:17:12 20° NNW 11:18:31 10° NNW
ADEOS II 3.3 11:10:34 10° N 11:13:52 29° NW 11:13:52 29° NW
Nadezhda 4 Rocket 4.4 11:12:32 23° SSE 11:16:27 60° E 11:22:40 10° NNE
USA 238 DEB 4.4 11:16:07 35° WNW 11:16:55 36° NW 11:23:11 10° NNE
USA 238 4.3 11:16:12 36° WNW 11:17:01 37° NW 11:23:19 10° NNE
STARLINK-1050 4.3 11:19:53 49° N 11:19:53 49° N 11:23:12 10° NE
Cosmos 2279 Rocket 3.8 11:15:03 10° N 11:21:18 75° W 11:23:25 43° SSW
STARLINK-1055 4.2 11:24:39 49° N 11:24:39 49° N 11:28:09 10° NE
MSX 4.2 11:20:18 10° NNE 11:26:01 61° ESE 11:29:42 22° S
TRAILBLAZER 4.4 11:23:05 10° NNW 11:27:39 89° WSW 11:32:10 10° SSE
IDEFIX/ARIANE 42P 2.4 11:23:12 10° NNE 11:28:26 87° WNW 11:29:43 53° SSW
STARLINK-1022 4.2 11:29:27 48° NNW 11:29:27 48° NNW 11:33:06 10° NE
CZ-2C R/B 4.0 11:26:37 10° NE 11:30:37 29° E 11:34:37 10° SSE
Okean 3 3.5 11:33:04 61° NW 11:33:04 61° NW 11:36:44 10° N
ARIANE 5 R/B 3.5 11:29:00 10° N 11:33:05 31° WNW 11:33:05 31° WNW
deb Chang Zheng 4 3.4 11:29:28 10° NNE 11:33:48 88° WNW 11:34:18 69° SSW
STARLINK-1042 4.2 11:34:13 45° NNW 11:34:13 45° NNW 11:38:03 10° NE
STARLINK-1056 4.3 11:39:00 41° NW 11:39:04 41° NW 11:43:00 10° NE
CENTAUR R/B 2.9 11:42:05 36° W 11:43:41 43° NW 11:50:07 10° NNE
STARLINK-1054 4.4 11:43:46 37° NW 11:44:02 38° NW 11:47:55 10° NNE
Cosmos 1356 3.5 11:44:21 10° N 11:47:47 75° E 11:49:03 36° SSE
SL-16 R/B 2.1 11:46:04 10° NNW 11:51:39 62° WSW 11:57:12 10° S
Gbstr 26 Del rocket 4.0 11:48:24 29° SSW 11:51:45 63° SE 11:57:05 10° NE
ADEOS 4.0 11:46:50 10° NNE 11:52:01 62° ESE 11:57:10 10° S
Meteor 1-13 Rocket 4.1 11:48:42 23° SSW 11:52:23 79° W 11:58:04 10° N
Cosmos 1300 Rocket 3.3 11:48:29 10° N 11:52:48 76° W 11:56:06 17° S
Cosmos 2221 Rocket 4.1 11:52:52 39° WNW 11:52:52 39° WNW 11:57:00 10° N
PAYLOAD A 4.3 11:49:06 10° NNE 11:54:28 71° ESE 11:59:37 10° S
